Location: De Har
(53.3413°N, 6.6858°E)
Time: 08:15:10
(UTC+00:00)

Cosmos 44 Rocket - Pass Details

Date: 22 April 2026
Orbit: 631 x 746 km, 65.1° (Epoch: 15 May)

Event Time Altitude Azimuth Distance (km) Brightness Sun altitude
Exits shadow 02:08:22 26° 245° (WSW) 1,432 4.4 -16.5°
Maximum altitude 02:11:15 64° 319° (NW) 820 3.6 -16.2°
Drops below altitude 10° 02:16:25 10° 41° (NE) 2,268 7.3 -15.7°
Sets 02:18:52 0° 45° (NE) 3,198 8.6 -15.4°
